Regional Weather Roundup
Issued by NWS

Home | Current Version | Previous Version | Text Only | Print | Product List | Glossary On
Versions: 1 2 3 4 5 6 7 8 9 10 11 12 13 14 15 16 17 18 19 20 21 22 23 24 25 26 27
000
ASUS45 KPSR 270910
RWRAZ

ARIZONA HOURLY REGIONAL WEATHER ROUNDUP
NATIONAL WEATHER SERVICE PHOENIX AZ
200 AM MST MON MAR 27 2017

NOTE: FAIR INDICATES FEW OR NO CLOUDS BELOW 12,000 FEET WITH NO
SIGNIFICANT WEATHER AND/OR OBSTRUCTIONS TO VISIBILITY.

AZZ001>003-036-271000-
NORTHWEST ARIZONA

CITY           SKY/WX    TMP DP  RH WIND       PRES   REMARKS
BULLHEAD CITY  PTCLDY    64  32  29 SE6       29.83F
KINGMAN        PTCLDY    45  28  51 SE5       29.93F
$$

AZZ004>008-015-016-018-271000-
NORTH CENTRAL ARIZONA

CITY           SKY/WX    TMP DP  RH WIND       PRES   REMARKS
GRAND CANYON   CLEAR     28  26  92 CALM      30.04F
WILLIAMS       CLEAR     32  27  80 S7        30.04F WCI  26
PRESCOTT       CLEAR     43  27  53 S6        30.00F
FLAGSTAFF      CLEAR     30  24  78 CALM      30.05F
PAYSON         CLEAR     45  28  53 CALM      30.04F
PAGE           PTCLDY    49  31  49 CALM      29.93F
$$

AZZ009>014-017-271000-
NORTHEAST ARIZONA

CITY           SKY/WX    TMP DP  RH WIND       PRES   REMARKS
WINSLOW        CLEAR     42  26  53 S6        29.99F
SAINT JOHNS    CLEAR     41  23  48 NE5       30.02F
WINDOW ROCK    CLEAR     33  26  75 CALM      30.04F
SHOW LOW       CLEAR     37  23  56 S9        30.06F WCI  31
$$

AZZ023-271000-
GREATER PHOENIX AREA

CITY           SKY/WX    TMP DP  RH WIND       PRES   REMARKS
PHOENIX        PTCLDY    65  37  35 E9        29.87S
BUCKEYE        CLEAR     55  32  41 N7        29.88S
LUKE AFB       CLEAR     57  40  51 NW7       29.87S
DEER VALLEY    CLEAR     56  36  47 CALM      29.88S
SCOTTSDALE     CLEAR     58  41  53 S3        29.89F
MESA-GATEWAY   CLEAR     55  36  47 SE9       29.90S
$$

AZZ027-028-271000-
SOUTHWEST MARICOPA COUNTY AND PINAL COUNTY

CITY           SKY/WX    TMP DP  RH WIND       PRES   REMARKS
CASA GRANDE    NOT AVBL
GILA BEND      FAIR      62  30  30 SE6       29.87S
$$

AZZ503-504-507>509-271000-
SOUTHEAST ARIZONA

CITY           SKY/WX    TMP DP  RH WIND       PRES   REMARKS
TUCSON         CLEAR     57  24  28 SE7       29.97F
DAVIS-MONTHAN  CLEAR     53  25  33 SE6       29.96S
NOGALES        CLEAR     49  26  41 E5        30.00F
SIERRA VISTA   CLEAR     51  26  37 CALM      30.04F
DOUGLAS        CLEAR     45  22  40 CALM      30.02F
SAFFORD        CLEAR     49  23  36 CALM      29.96S
$$

AZZ020-021-025-026-031-271000-
SOUTHWEST ARIZONA

CITY           SKY/WX    TMP DP  RH WIND       PRES   REMARKS
YUMA           CLEAR     64  43  46 SW3       29.87F
$$

CAZ031-033-041-043-047-048-061-271000-
SOUTHERN CALIFORNIA

CITY           SKY/WX    TMP DP  RH WIND       PRES   REMARKS
DOWNTOWN L.A.  CLEAR     57  51  80 CALM      30.03S
L.A. AIRPORT   PTCLDY    57  53  86 CALM      30.03S
SAN DIEGO      MOCLDY    60  52  74 CALM      30.05F
BURBANK        CLEAR     55  50  83 E3        30.02S
ONTARIO        MOCLDY    52  50  93 W5        30.02S
RIVERSIDE      CLEAR     54  52  93 CALM      30.02S
PALM SPRINGS   PTCLDY    65  49  56 CALM      29.87F
EL CENTRO NAS  CLEAR     65  43  44 W15       29.89S
IMPERIAL       CLEAR     62  46  55 W10       29.86S
BLYTHE         CLEAR     64  42  44 SE6       29.85S
NEEDLES        CLEAR     72  33  24 S8        29.84S
$$

NVZ020-UTZ003-271000-
SOUTHERN NEVADA-UTAH

CITY           SKY/WX    TMP DP  RH WIND       PRES   REMARKS
LAS VEGAS      PTCLDY    64  34  32 S8        29.83F
SALT LAKE CITY MOCLDY    49  34  56 SE6       29.90S
$$

NMZ009-TXZ055-271000-
NEW MEXICO-WEST TEXAS

CITY           SKY/WX    TMP DP  RH WIND       PRES   REMARKS
ALBUQUERQUE    PTCLDY    44  23  43 CALM      30.02S
EL PASO        CLEAR     60  18  19 S10       29.97S
$$


........................KEY........................
SKY/WX - SKY CONDITION/WEATHER
TMP    - TEMPERATURE IN FAHRENHEIT
DP     - DEW POINT IN FAHRENHEIT
RH     - RELATIVE HUMIDITY IN PERCENT
WIND   - DIRECTION AND SPEED IN MILES PER HOUR (MPH)
VRB    - VARIABLE WIND DIRECTION
PRES   - MEAN SEA LEVEL PRESSURE IN INCHES OF MERCURY
         F - FALLING PRESSURE   R - RISING PRESSURE
         S - STEADY PRESSURE
VSB    - VISIBILITY IN MILES
HX     - HEAT INDEX IN FAHRENHEIT
WCI    - WIND CHILL INDEX IN FAHRENHEIT
TC     - TEMPERATURE IN CELSIUS WHICH IS ALSO KNOWN AS
         TEMPERATURE IN CENTIGRADE
AFB    - AIR FORCE BASE
         LUKE AFB IS LUKE AIR FORCE BASE
         DAVIS-MONTHAN IS DAVIS-MONTHAN AIR FORCE BASE
NAS    - NAVAL AIR STATION
         EL CENTRO NAS IS EL CENTRO NAVAL AIR STATION
N/A    - NOT AVAILABLE





USA.gov is the U.S. government's official web portal to all federal, state and local government web resources and services.